DECAYED

STARLINK-4418, 53678 (Decayed)

Orbit data source: Space-Track

STARLINK-4418, 53678 was a payload satellite owned by SpaceX/Seattle (US) in LEO that was launched on Wed, 31 Aug 2022 UTC via an FALCON 9 launch vehicle from the Air Force Western Test Range (AFWTR). Payload-class satellites include a variety of spacecraft equipped with specific instruments for various scientific and technological missions. These include communications satellites like Starlink; space stations such as the ISS; scientific satellites like the Hubble; Earth observation satellites from companies like Planet Labs, Umbra, and HawkEye 360; GPS; miniature CubeSats for education and research; and military/defense satellites.

Not visible in the next 10 days
Identifier
53678, 2022-105AG
Orbit
Decayed
Last TLE update
2 months ago
Origin
Manufacturer
SpaceX/Seattle
Mission
Decayed Commercial Communications
Bus & Motor
STARLINK, Unknown motor
Mass
300 kg wet, ~290 kg dry
Launch date (UTC)
2022-08-31 (3 years ago)
Launch vehicle
FALCON 9
Launch site
Air Force Western Test Range (AFWTR)
Object type
Payload
Rocket body
Debris
Shape & HBR
Box + 1 Pan, 4.4 m
Radar Cross Section
13.562 m², Large (>1 m²)

Expand to show TLE details & history

TLE from 2 months ago
0 STARLINK-4418
1 53678U 22105AG  25128.36823103  .55476163  28914-5  20760-3 0  9997
2 53678  97.6163  18.3673 0012821 240.7828 232.5157 16.58039940148201
Epoch: 2025-05-08T08:50Z
TLE epoch observation values (Epoch: 2025-05-08T08:50:15.161Z)
Latitude
65.76051°
Longitude
-143.46172°
Altitude
134.727 km
Speed
7.829 km/s
True Right ascension
14h 22m 09s
True Declination
65° 37' 09"
Sunlit
Object was in daylight at epoch
Visualization orbit readout
Visualization observer readout
Orbital elements
Apogee altitude
123.368 km
Perigee altitude
106.719 km
Semi-major axis
6,493.181 km
Eccentricity
0.00128
Inclination
97.6163°
RAAN
18.3673°
Arg. of periapsis
240.7828°
True anomaly
232.39923°
Mean anomaly
232.5157°
Eccentric anomaly
232.45745°
Mean motion
4.14817 °/min
Orbital period
86.79 mins
BSTAR
0.0002076
Loading maneuver chart data...
Loading SW <> Apogee altitude chart data...
Loading historical data...
Loading historical data...
Loading historical data...
Loading historical data...
Loading historical data...
Loading historical data...
Loading historical data...
|